Location: Killam
(52.7910°N, 111.8608°W)
Time: 20:53:50
(UTC+00:00)

DX 1 - Visible Passes

Search period start: 16 March 2026 00:00
Search period end: 26 March 2026 00:00
Orbit: 595 x 603 km, 98.4° (Epoch: 16 March)

Date Brightness Start Highest point End Pass type
(mag) Time Alt. Az. Time Alt. Az. Time Alt. Az.
16 Mar ? 10:18:29 10° NNE 10:21:42 45° NE 10:21:42 45° NE visible
16 Mar ? 11:54:49 10° N 11:57:59 21° WNW 11:58:26 20° WNW visible
17 Mar ? 10:29:13 10° NNE 10:32:43 57° NE 10:32:43 57° NE visible
17 Mar ? 12:05:50 10° NNW 12:08:37 17° NW 12:09:27 17° WNW visible
18 Mar ? 09:06:01 10° ENE 09:07:00 12° ENE 09:07:00 12° ENE visible
18 Mar ? 10:39:58 10° NNE 10:43:43 69° N 10:43:43 69° N visible
18 Mar ? 12:16:55 10° NNW 12:19:15 15° NW 12:20:28 13° WNW visible
19 Mar ? 09:16:13 10° NE 09:18:00 15° ENE 09:18:00 15° ENE visible
19 Mar ? 10:50:44 10° NNE 10:54:44 68° NW 10:54:44 68° NW visible
19 Mar ? 12:28:08 10° NNW 12:29:50 12° NW 12:31:28 10° WNW visible
20 Mar ? 09:26:35 10° NE 09:29:00 19° ENE 09:29:00 19° ENE visible
20 Mar ? 11:01:31 10° N 11:05:41 56° WNW 11:05:44 56° WNW visible
20 Mar ? 12:39:54 10° NW 12:40:26 10° NW 12:40:58 10° WNW visible
21 Mar ? 09:37:04 10° NE 09:40:00 23° E 09:40:00 23° E visible
21 Mar ? 11:12:19 10° N 11:16:22 45° WNW 11:16:44 44° W visible
22 Mar ? 09:47:37 10° NE 09:50:59 29° E 09:50:59 29° E visible
22 Mar ? 11:23:09 10° N 11:27:03 37° WNW 11:27:44 34° W visible
23 Mar ? 09:58:12 10° NNE 10:01:58 36° E 10:01:58 36° E visible
23 Mar ? 11:34:00 10° N 11:37:42 30° WNW 11:38:42 27° W visible
24 Mar ? 10:08:50 10° NNE 10:12:54 45° E 10:12:57 45° ESE visible
24 Mar ? 11:44:52 10° N 11:48:21 25° WNW 11:49:41 21° W visible
25 Mar ? 10:19:29 10° NNE 10:23:39 57° ESE 10:23:56 56° ESE visible
25 Mar ? 11:55:46 10° N 11:58:57 21° WNW 12:00:40 17° W visible
